Location: ??? ???
(36.1002°N, 43.8785°E)
Time: 10:03:50
(UTC+00:00)

Daily predictions for brighter satellites

Satellite Brightness Start Highest point End
(mag) Time Altitude Azimuth Time Altitude Azimuth Time Altitude Azimuth
GPS 2-04 Rocket1 2.8 16:24:35 10° W 16:28:45 86° S 16:32:53 10° E
S3M 4.1 16:27:51 10° S 16:34:12 77° E 16:40:31 10° N
Okean-O 3.8 16:31:42 10° S 16:35:56 44° W 16:40:11 10° NNW
ARGOS 4.3 16:31:25 10° S 16:36:31 45° W 16:41:37 10° NNW
DELTA 2 R/B (1) 4.3 16:35:49 10° W 16:41:05 45° SSW 16:46:21 10° SE
CZ-4 R/B 3.9 16:38:32 10° SSW 16:41:44 22° W 16:44:54 10° NW
Cosmos 1782 3.2 16:37:59 10° SSE 16:41:45 41° E 16:45:30 10° NNE
Cosmos 1933 3.4 16:40:51 10° S 16:44:52 85° W 16:48:54 10° N
Helios 1A Rocket 3.0 16:41:24 10° SSE 16:45:32 83° WSW 16:49:42 10° NNW
Meteor 1-25 Rocket 4.4 16:40:29 10° N 16:46:18 64° E 16:52:03 10° SSE
USA 267 3.3 16:40:41 10° SE 16:47:12 77° NE 16:53:46 10° NW
CZ-2C R/B 2.8 16:46:06 10° SSW 16:48:47 17° SSE 16:50:47 12° ESE
Cosmos 2315 Rocket 4.2 16:44:26 10° SSE 16:50:34 53° E 16:56:44 10° NNE
GEOS 3 Rocket 3.9 16:46:44 10° SSE 16:52:06 74° WSW 16:57:29 10° NW
Delta 2 Rocket 3.8 16:48:35 10° W 16:54:03 84° S 16:58:57 10° E
SJ-6B 2.8 16:50:29 10° SSE 16:54:21 69° ENE 16:58:21 10° N
X-37B 0.7 16:52:12 10° WNW 16:55:22 67° SSW 16:57:48 16° SE
Cosmos 1437 2.4 16:55:24 10° S 16:58:10 56° E 17:00:57 10° NNE
MOS 1-B Rocket 4.1 16:52:10 10° NNE 16:59:00 85° ESE 17:04:54 10° SSW
Cosmos 1515 Rocket 4.4 16:58:59 11° SSE 17:02:44 31° E 17:06:37 10° NNE
ERS-2 3.5 17:00:25 10° N 17:03:50 41° WNW 17:07:15 10° SW
MOS 1 4.4 17:02:16 10° SSE 17:07:50 65° ENE 17:13:28 10° N
Cosmos 773 Rocket 4.1 17:03:00 10° NNW 17:08:17 65° ENE 17:12:40 15° SSE
Cosmos 2082 Rocket 3.7 17:04:23 10° N 17:08:41 22° ENE 17:11:56 14° E
Resurs 01 Rocket 2.6 17:06:26 17° ESE 17:09:07 30° ENE 17:13:00 10° N
Cosmos 1633 Rocket 3.1 17:06:56 10° N 17:11:19 65° E 17:15:08 14° SSE
Cosmos 1943 Rocket 3.8 17:12:16 14° E 17:12:20 14° E 17:15:04 10° ENE
Cosmos 1328 Rocket 3.5 17:09:24 10° S 17:13:49 83° E 17:18:13 10° N
Tianhe-1 1.6 17:14:45 10° W 17:17:50 59° NNW 17:20:57 10° ENE
Meteor 2-17 Rocket 4.5 17:15:15 10° N 17:21:26 89° W 17:27:32 10° S
USA 305 3.8 17:18:09 10° NNW 17:22:08 37° NE 17:24:31 20° E
SPOT 3 Rocket 4.0 17:22:17 21° SE 17:25:18 44° ENE 17:30:10 10° N
Cosmos 2278 Rocket 2.7 17:22:26 10° SSW 17:28:01 64° WNW 17:33:39 10° NNE
Cosmos 1470 Rocket 3.7 17:24:13 10° N 17:28:38 56° E 17:31:00 25° SSE
COSMOS 2406 3.2 17:24:52 10° NNW 17:30:31 66° ENE 17:33:57 24° SE
OBJECT-B 2.7 17:29:41 10° SSW 17:32:29 27° W 17:35:18 10° NW
ATLAS 5 CENTAUR R/B 3.6 17:27:02 10° NW 17:32:40 39° WSW 17:39:01 10° S
CZ-2C R/B 4.0 17:29:58 10° NNE 17:34:22 47° E 17:36:47 24° SSE
Cosmos 1271 Rocket 3.0 17:34:31 30° SSE 17:36:07 49° E 17:40:00 10° NNE
SJ 16-02 1.7 17:36:22 10° SSW 17:40:45 65° WNW 17:45:10 10° N
USA 306 3.3 17:37:42 10° NW 17:41:53 53° NE 17:43:26 33° E
Cosmos 1933 Rocket 3.8 17:38:08 10° N 17:42:21 49° E 17:43:39 36° SE
BREEZE-M DEB (TANK) 2.7 17:35:48 10° NW 17:42:35 87° NE 17:43:27 45° SE
NOSS 3-4 (A) 4.3 17:36:18 10° NNW 17:43:16 52° NE 17:47:40 26° ESE
NOSS 3-4 (C) 4.3 17:36:25 10° NNW 17:43:22 51° NE 17:47:46 26° ESE
Meteor 2-6 Rocket 4.1 17:40:10 10° S 17:45:35 89° E 17:51:09 10° N
ISS -1.7 17:43:03 10° W 17:46:04 30° NW 17:49:06 10° NNE
IGS 5A 3.4 17:45:01 37° SSE 17:46:33 72° ENE 17:50:41 10° N
Ariane Rocket 3.6 17:44:05 14° S 17:48:19 52° W 17:53:17 10° NNW
Resurs 1-3 4.3 17:45:33 17° S 17:48:45 50° W 17:53:01 10° NNW
CREW DRAGON DEMO-1 DEB 3.2 17:50:46 10° NW 17:52:52 51° NNW 17:52:52 51° NNW
ARIANE 5 R/B 3.6 17:55:10 29° E 17:55:33 30° ENE 17:59:20 10° N
Iridium 4 Rocket 3.8 17:52:59 30° SSE 17:55:50 62° E 18:01:40 10° N
ATLAS 2AS CENTAUR R/B 3.7 17:49:46 10° NNW 17:56:22 36° NE 17:59:38 24° E
deb Kosmos-1763 4.1 17:55:35 10° NNW 17:59:06 69° WSW 17:59:37 57° SSW
Cosmos 1666 2.4 17:55:44 10° N 17:59:26 73° E 17:59:46 67° SE
Cosmos 990 Rocket 3.9 17:57:35 26° S 18:00:28 68° ESE 18:05:42 10° NNE
Cosmos 1812 4.0 17:57:21 11° SSW 18:00:44 40° W 18:04:24 10° N
Meteor 1-27 Rocket 3.9 18:00:02 35° SSE 18:02:17 57° E 18:08:03 10° NNE
Cosmos 1833 Rocket 2.9 17:56:43 10° NNW 18:02:19 65° WSW 18:05:04 30° S
Cosmos 1898 Rocket 3.6 18:01:17 38° SSE 18:03:02 56° ESE 18:08:14 10° NNE
CZ-4C R/B 3.4 17:59:27 10° NW 18:07:04 63° WSW 18:12:04 27° S
GPS 2-04 Rocket1 2.9 18:04:05 10° W 18:08:03 54° SSW 18:08:03 54° SSW
OAO 3 Rocket 2.9 18:03:39 10° W 18:08:18 78° S 18:09:14 56° ESE
Nadezhda 1 Rocket 4.0 18:06:25 36° SSE 18:08:57 61° E 18:15:05 10° NNE
Cosmos 2154 Rocket 4.3 18:03:43 10° N 18:09:47 48° E 18:11:23 40° ESE
USA 307 2.7 18:06:21 10° NW 18:10:39 90° ENE 18:11:06 71° SE
Cosmos 158 Rocket 3.7 18:07:25 10° NNW 18:12:21 79° ENE 18:13:24 55° SE
Cosmos 923 Rocket 4.2 18:08:25 10° N 18:13:37 56° ENE 18:14:35 48° ESE
Cosmos 2074 Rocket 3.9 18:08:52 10° N 18:15:12 84° E 18:17:43 39° SSE
Cosmos 2184 Rocket 3.9 18:10:05 10° N 18:16:18 82° E 18:18:34 42° SSE
Cosmos 44 4.3 18:13:11 10° NNW 18:18:11 37° NE 18:19:06 34° ENE
USA 308 2.9 18:20:14 10° NW 18:24:26 68° SW 18:24:26 68° SW
CZ-2C R/B 3.4 18:24:15 10° WSW 18:25:07 16° WSW 18:25:07 16° WSW
Cosmos 2297 3.8 18:29:17 25° SSW 18:32:41 78° WNW 18:38:23 10° NNE
Terra 2.7 18:33:24 36° ENE 18:33:24 36° ENE 18:37:24 10° N
Delta 2 Rocket 3.7 18:31:25 10° W 18:36:04 66° SW 18:36:04 66° SW
Cosmos 1461 3.3 18:37:59 57° WSW 18:38:50 73° WNW 18:43:31 10° NNE
Cosmos 1610 Rocket 4.3 18:33:11 10° N 18:39:21 82° E 18:40:30 61° SSE
Meteor 1-11 Rocket 3.8 18:33:44 10° NNW 18:39:40 77° W 18:41:00 55° SSW
Cosmos 2228 Rocket 4.1 18:41:38 35° WSW 18:42:45 42° W 18:47:01 10° N
Resurs 01 Rocket 3.7 18:44:00 17° WSW 18:45:35 21° W 18:48:56 10° NW
Cosmos 2181 Rocket 4.5 18:46:36 41° E 18:46:36 41° E 18:51:55 10° NNE
SPOT 1/Viking Rocket 4.2 18:47:11 41° SW 18:48:14 46° W 18:53:14 10° NNW
ERS-1 Rocket 2.8 18:49:27 82° NE 18:49:27 82° NE 18:54:24 10° N
Cosmos 1340 Rocket 3.8 18:46:21 10° N 18:49:10 42° N 18:49:10 42° N
Cosmos 2112 Rocket 3.9 18:46:42 10° NNW 18:52:02 81° ENE 18:52:02 81° ENE
Cosmos 1869 Rocket 4.0 18:48:01 10° NNW 18:51:51 57° WNW 18:51:51 57° WNW
Cosmos 2082 Rocket 2.7 18:47:36 10° NNW 18:52:59 48° WSW 18:53:48 44° SW
Cosmos 1295 Rocket 4.4 18:47:54 10° N 18:54:17 87° W 18:55:15 66° S
Tianhe-1 3.9 18:51:56 10° WNW 18:53:06 18° NW 18:53:06 18° NW
Cosmos 1943 Rocket 2.4 18:53:41 44° SW 18:55:24 67° WNW 19:01:00 10° NNE
Spot 2 Rocket 3.9 18:55:08 53° WSW 18:55:29 54° W 19:00:25 10° NNW
Cosmos 1937 Rocket 3.8 18:56:54 52° WSW 18:57:45 60° WNW 19:02:52 10° N
SPOT 5 3.1 19:03:13 73° W 19:03:13 73° W 19:08:24 10° NNW
Cosmos 1707 Rocket 4.3 19:04:40 50° NNW 19:04:40 50° NNW 19:08:10 10° N
Cosmos 1867 4.1 19:07:31 48° NE 19:07:31 48° NE 19:11:30 10° NNE
Cosmos 2341 Rocket 3.9 19:06:16 10° N 19:12:40 79° E 19:12:48 78° E
Cosmos 2369 Rocket 2.3 19:17:03 71° NNE 19:17:03 71° NNE 19:22:05 10° NNE
Cosmos 1680 Rocket 4.2 19:12:23 10° NNW 19:17:11 47° W 19:17:11 47° W
Cosmos 2218 Rocket 4.3 19:13:11 10° N 19:19:04 56° ENE 19:19:04 56° ENE
Cosmos 1238 Rocket 4.0 19:15:55 10° N 19:20:17 54° NNE 19:20:17 54° NNE
Meteor 1-18 Rocket 4.4 19:23:24 65° NNE 19:23:24 65° NNE 19:28:09 10° N
Lacrosse 5 4.4 19:36:00 11° NE 19:36:00 11° NE 19:36:13 10° NE
SL-8 Rocket 4.0 19:26:11 10° N 19:32:12 81° NNE 19:32:12 81° NNE
ATLAS 2AS CENTAUR R/B 3.3 19:40:45 10° NW 19:47:04 43° WSW 19:47:04 43° WSW
Milstar 3 3.9 19:45:36 10° W 19:55:45 45° SW 19:55:45 45° SW
Meteor 2-4 Rocket 4.4 20:08:56 50° NNW 20:08:56 50° NNW 20:13:20 10° N
Terra 4.1 20:12:16 17° WNW 20:12:16 17° WNW 20:14:17 10° NW
ATLAS CENTAUR R/B 4.4 20:34:09 12° NNW 20:34:09 12° NNW 20:34:38 10° NNW
Cosmos 1821 Rocket 4.4 20:27:47 10° N 20:32:57 61° NNW 20:32:57 61° NNW
Lacrosse 5 3.7 21:15:08 27° NNW 21:15:08 27° NNW 21:18:52 10° NNE
SeaSat 1 4.2 21:10:07 10° NNE 21:12:25 27° NE 21:12:25 27° NE
Cosmos 1980 Rocket 4.3 21:39:29 16° E 21:39:29 16° E 21:41:50 10° ENE
COSMOS 2455 3.5 21:33:29 10° NNW 21:38:40 51° NNE 21:38:40 51° NNE
Cosmos 1605 Rocket 4.5 21:34:05 10° N 21:39:01 56° NNW 21:39:01 56° NNW
Cosmos 2227 Rocket 3.3 21:50:39 10° N 21:55:55 38° ENE 21:55:58 38° ENE
Cosmos 1656 4.5 21:59:06 47° N 21:59:06 47° N 22:03:03 10° NNE
Cosmos 2297 Rocket 2.9 21:52:37 10° NNW 21:57:23 50° NE 21:57:23 50° NE
Timation 2 Rocket 4.4 21:59:03 10° NNW 22:04:52 51° ENE 22:04:59 51° ENE
ADEOS II 3.8 22:17:25 10° NE 22:21:34 23° E 22:21:34 23° E
Cosmos 2123 Rocket 4.2 22:22:45 63° E 22:22:45 63° E 22:28:44 10° NNE
Cosmos 2100 Rocket 4.0 22:16:24 10° N 22:22:17 78° N 22:22:17 78° N
Helios 1B rocket 4.4 22:21:17 10° NNE 22:23:25 27° NE 22:23:25 27° NE
Cosmos 1802 Rocket 4.0 22:22:19 10° N 22:28:20 74° ENE 22:28:20 74° ENE
BREEZE-M DEB (TANK) 3.3 22:35:06 57° NNW 22:35:06 57° NNW 22:44:23 10° NE
Lacrosse 4 Rocket 2.9 22:37:55 36° N 22:37:55 36° N 22:40:39 10° NNE
ISS -0.6 22:38:09 10° N 22:40:10 15° NNE 22:42:11 10° ENE
Resurs 1-4 Rocket 2.3 22:35:45 10° NNE 22:40:19 68° NNE 22:40:19 68° NNE
CZ-2D R/B 2.2 22:38:35 10° NNE 22:43:21 71° NNE 22:43:21 71° NNE
Cosmos 2056 Rocket 3.8 22:46:13 60° ENE 22:46:13 60° ENE 22:50:36 10° NNE
Cosmos 2219 3.7 22:41:25 10° NNW 22:45:42 49° NW 22:45:42 49° NW
APEX 4.4 22:43:14 10° NNW 22:48:09 62° ENE 22:48:44 59° E
AQUA 4.4 22:44:57 10° NNE 22:48:57 55° ENE 22:48:57 55° ENE
NPP 3.7 22:44:32 10° NNE 22:49:38 77° NE 22:49:38 77° NE
SeaSat 1 4.5 22:48:59 10° NNW 22:52:02 17° NW 22:52:11 17° NW
USA 281 3.1 22:55:42 63° SSE 22:56:55 87° WSW 23:03:31 10° NNW
SL-19 R/B 4.1 22:51:59 10° NNE 22:57:20 81° E 22:57:20 81° E
Cosmos 1371 Rocket 4.1 22:59:07 70° NNW 22:59:07 70° NNW 23:03:50 10° NNE
SL-08 R/B 4.4 22:53:35 10° N 23:00:00 87° W 23:00:47 71° S
Cosmos 1140 Rocket 3.7 22:55:04 10° N 23:00:16 64° ENE 23:00:47 60° ESE
BREEZE-M DEB (TANK) 3.8 23:01:53 31° NE 23:01:53 31° NE 23:03:12 10° NE
USA 215 3.1 22:56:46 10° SE 23:03:18 89° SW 23:09:53 10° NW
Meteor 1-24 Rocket 4.4 23:02:52 39° SE 23:03:59 44° E 23:09:07 10° NNE
SL-16 R/B 2.4 23:03:39 69° S 23:04:25 81° WSW 23:10:43 10° NNW
UNK 4.2 23:06:17 55° NNW 23:06:17 55° NNW 23:09:53 10° NNW
CENTAUR R/B 4.0 23:05:48 19° SE 23:07:32 21° ESE 23:12:05 10° ENE
Cosmos 1697 Rocket 3.5 23:07:56 36° WNW 23:07:58 36° WNW 23:13:08 10° N
Cosmos 1544 Rocket 4.4 23:08:27 10° NNW 23:11:32 43° NNW 23:11:32 43° NNW
Cosmos 1725 Rocket 3.9 23:10:26 10° NNW 23:16:34 63° W 23:17:03 61° WSW
IRS-1D 3.7 23:12:52 10° NNE 23:18:12 68° ESE 23:19:05 57° SSE
Cosmos 1980 Rocket 2.4 23:21:15 54° W 23:21:42 56° WNW 23:27:17 10° NNE
Cosmos 2233 Rocket 3.8 23:15:58 10° N 23:22:11 90° W 23:23:55 50° S
Cosmos 1536 Rocket 4.0 23:29:09 49° NW 23:29:09 49° NW 23:32:53 10° N
Cosmos 2016 Rocket 4.4 23:22:50 10° NNW 23:28:34 41° W 23:28:38 41° W
Meteor 2-5 Rocket 3.6 23:33:30 58° SW 23:34:33 73° W 23:40:10 10° N
Cosmos 1190 Rocket 3.9 23:30:27 10° NNW 23:35:39 69° WSW 23:36:17 62° SSW
IDEFIX/ARIANE 42P 2.9 23:32:32 10° NNE 23:37:46 63° E 23:39:38 39° SSE
Cosmos 1420 Rocket 4.0 23:37:36 56° W 23:38:11 60° WNW 23:43:19 10° N
Cosmos 2227 Rocket 3.7 23:35:09 10° NW 23:37:44 21° WNW 23:37:44 21° WNW
ARIANE 5 R/B 3.7 23:35:05 10° NNE 23:39:45 36° E 23:42:36 20° SSE
Cosmos 1626 4.3 23:42:44 16° NW 23:42:44 16° NW 23:43:58 10° NNW
Cosmos 2297 Rocket 4.2 23:38:01 10° WNW 23:39:09 13° WNW 23:39:09 13° WNW
Atlas Centaur 2 3.3 23:42:54 37° SSW 23:44:57 44° SSE 23:51:40 10° E
Cosmos 220 Rocket 4.0 23:46:47 62° W 23:47:04 63° WNW 23:51:28 10° N
OAO 2 Rocket 3.3 23:47:53 47° W 23:49:25 80° S 23:54:45 10° E
Cosmos 2278 4.4 23:48:13 34° W 23:49:27 38° WNW 23:54:44 10° N
GP-B 3.4 23:46:22 10° N 23:50:39 48° W 23:50:40 48° W
Cosmos 407 Rocket 4.4 23:50:19 10° NW 23:54:29 32° W 23:54:29 32° W
Aureole 2 Rocket 4.0 23:52:33 10° NNW 23:53:38 21° N 23:53:38 21° N
